Location: Lane
(33.5226°N, 79.8788°W)
Time: 09:22:33
(UTC+00:00)

Altair - Pass Details

Date: 10 October 2022
Orbit: 1501 x 1682 km, 47.2° (Epoch: 30 November)

Event Time Altitude Azimuth Distance (km) Brightness Sun altitude
Rises 11:38:48 0° 293° (WNW) 4,800 9.4 2.9°
Reaches altitude 10° 11:42:15 10° 301° (WNW) 3,841 9.0 3.7°
Maximum altitude 11:51:14 38° 7° (N) 2,356 8.6 5.5°
Drops below altitude 10° 12:00:25 10° 73° (ENE) 3,937 10.9 7.4°
Sets 12:04:00 0° 81° (E) 4,931 11.6 8.1°
